When you browse on this site, cookies collect data to enhance your experience and personalize the content and advertising you see.
Visit our Privacy Policy to learn more. By continuing to use the site, you agree to this use of cookies and data.
  • In Hungary
  • List of Countries
  • For 7 days
  • Water Temperature
  • Satellite Maps
  • Weather Map
  • News
  • Weather Widgets
  • user-avatar
    Login

    Hourly Weather Chernomorec

    Today, 21 November, Wednesday

    Time Temperature Precipitation Wind Pressure Humidity
    00:00 +8°C° 0.6 mm 4 mps 763 mmHg 96%
    01:00 +10°C° 0.6 mm 4 mps 763 mmHg 97%
    02:00 +10°C° 0.6 mm 4 mps 762 mmHg 97%
    03:00 +10°C° 0.5 mm 4 mps 762 mmHg 97%
    04:00 +11°C° 0.5 mm 4 mps 761 mmHg 97%
    05:00 +10°C° 0.5 mm 5 mps 761 mmHg 97%
    06:00 +10°C° 0.6 mm 5 mps 761 mmHg 97%
    07:00 +10°C° 0.6 mm 5 mps 760 mmHg 97%
    08:00 +12°C° 0.6 mm 5 mps 760 mmHg 97%
    09:00 +12°C° 0.6 mm 5 mps 760 mmHg 95%
    10:00 +13°C° 0.6 mm 5 mps 759 mmHg 93%
    11:00 +14°C° 0.6 mm 6 mps 759 mmHg 91%
    12:00 +14°C° 0.7 mm 6 mps 759 mmHg 91%
    13:00 +14°C° 0.7 mm 5 mps 758 mmHg 92%
    14:00 +14°C° 0.7 mm 5 mps 758 mmHg 92%
    15:00 +13°C° 1 mm 5 mps 758 mmHg 93%
    16:00 +13°C° 1 mm 5 mps 758 mmHg 94%
    17:00 +13°C° 1 mm 5 mps 758 mmHg 95%
    18:00 +13°C° 1 mm 5 mps 758 mmHg 95%
    19:00 +13°C° 1 mm 5 mps 758 mmHg 95%
    20:00 +12°C° 1 mm 5 mps 759 mmHg 94%
    21:00 +11°C° 1.3 mm 6 mps 759 mmHg 94%
    22:00 +11°C° 1.3 mm 7 mps 759 mmHg 93%
    23:00 +11°C° 1.3 mm 7 mps 760 mmHg 93%

    Tomorrow, 22 November, Thursday

    Time Temperature Precipitation Wind Pressure Humidity
    00:00 +10°C° 1.6 mm 8 mps 760 mmHg 92%
    01:00 +10°C° 1.6 mm 8 mps 760 mmHg 91%
    02:00 +10°C° 1.6 mm 8 mps 760 mmHg 91%
    03:00 +9°C° 0.9 mm 8 mps 760 mmHg 90%
    04:00 +9°C° 0.9 mm 8 mps 761 mmHg 90%
    05:00 +9°C° 0.9 mm 8 mps 761 mmHg 90%
    06:00 +7°C° 1 mm 9 mps 761 mmHg 90%
    07:00 +7°C° 1 mm 9 mps 762 mmHg 90%
    08:00 +7°C° 1 mm 10 mps 762 mmHg 89%
    09:00 +7°C° 0.5 mm 9 mps 763 mmHg 89%
    10:00 +7°C° 0.5 mm 9 mps 763 mmHg 89%
    11:00 +7°C° 0.5 mm 9 mps 764 mmHg 88%
    12:00 +6°C° 0.2 mm 9 mps 764 mmHg 87%
    13:00 +6°C° 0.2 mm 8 mps 764 mmHg 86%
    14:00 +6°C° 0.2 mm 8 mps 764 mmHg 85%
    15:00 +6°C° 0.1 mm 8 mps 765 mmHg 85%
    16:00 +6°C° 0.1 mm 8 mps 765 mmHg 84%
    17:00 +6°C° 0.1 mm 7 mps 766 mmHg 84%
    18:00 +5°C° 0 mm 7 mps 766 mmHg 83%
    19:00 +5°C° 0 mm 7 mps 766 mmHg 83%
    20:00 +5°C° 0 mm 6 mps 767 mmHg 83%
    21:00 +4°C° 0 mm 6 mps 767 mmHg 83%
    22:00 +4°C° 0 mm 6 mps 767 mmHg 83%
    23:00 +4°C° 0 mm 6 mps 768 mmHg 83%

    Day after tomorrow, 23 November, Friday

    Time Temperature Precipitation Wind Pressure Humidity
    00:00 +3°C° 0 mm 5 mps 768 mmHg 82%
    01:00 +3°C° 0 mm 5 mps 768 mmHg 82%
    02:00 +3°C° 0 mm 5 mps 768 mmHg 82%
    03:00 +2°C° 0 mm 5 mps 768 mmHg 81%
    04:00 +2°C° 0 mm 5 mps 768 mmHg 81%
    05:00 +2°C° 0 mm 5 mps 768 mmHg 80%
    06:00 +1°C° 0 mm 4 mps 769 mmHg 79%
    07:00 +1°C° 0 mm 4 mps 769 mmHg 78%
    08:00 +1°C° 0 mm 4 mps 770 mmHg 77%
    09:00 +3°C° 0 mm 4 mps 770 mmHg 70%
    10:00 +4°C° 0 mm 4 mps 770 mmHg 64%
    11:00 +6°C° 0 mm 4 mps 770 mmHg 57%
    12:00 +6°C° 0 mm 4 mps 770 mmHg 55%
    13:00 +7°C° 0 mm 4 mps 770 mmHg 53%
    14:00 +7°C° 0 mm 4 mps 770 mmHg 50%
    15:00 +6°C° 0 mm 4 mps 770 mmHg 55%
    16:00 +5°C° 0 mm 4 mps 770 mmHg 60%
    17:00 +5°C° 0 mm 4 mps 770 mmHg 64%
    18:00 +4°C° 0 mm 4 mps 771 mmHg 66%
    19:00 +4°C° 0 mm 4 mps 771 mmHg 68%
    20:00 +3°C° 0 mm 4 mps 771 mmHg 70%
    21:00 +3°C° 0 mm 4 mps 771 mmHg 71%
    22:00 +3°C° 0 mm 4 mps 771 mmHg 71%
    23:00 +3°C° 0 mm 4 mps 771 mmHg 72%

    24 November, Saturday

    Time Temperature Precipitation Wind Pressure Humidity
    00:00 +3°C° 0 mm 4 mps 771 mmHg 72%
    01:00 +3°C° 0 mm 4 mps 771 mmHg 72%
    02:00 +3°C° 0 mm 3 mps 771 mmHg 73%
    03:00 +3°C° 0 mm 3 mps 770 mmHg 74%
    04:00 +2°C° 0 mm 3 mps 770 mmHg 75%
    05:00 +2°C° 0 mm 3 mps 770 mmHg 77%
    06:00 +2°C° 0 mm 3 mps 770 mmHg 78%
    07:00 +2°C° 0 mm 3 mps 770 mmHg 79%
    08:00 +3°C° 0 mm 2 mps 770 mmHg 79%
    09:00 +5°C° 0 mm 2 mps 770 mmHg 76%
    10:00 +6°C° 0 mm 2 mps 770 mmHg 72%
    11:00 +8°C° 0 mm 2 mps 769 mmHg 68%
    12:00 +8°C° 0 mm 2 mps 769 mmHg 67%
    13:00 +9°C° 0 mm 2 mps 768 mmHg 65%
    14:00 +9°C° 0 mm 2 mps 768 mmHg 63%
    15:00 +9°C° 0 mm 2 mps 767 mmHg 69%
    16:00 +8°C° 0 mm 2 mps 767 mmHg 75%
    17:00 +7°C° 0 mm 2 mps 767 mmHg 80%
    18:00 +7°C° 0 mm 1 mps 767 mmHg 83%
    19:00 +7°C° 0 mm 1 mps 767 mmHg 86%
    20:00 +5°C° 0 mm 0 mps 767 mmHg 89%
    21:00 +5°C° 0 mm 0 mps 767 mmHg 89%
    22:00 +5°C° 0 mm 0 mps 766 mmHg 90%
    23:00 +5°C° 0 mm 0 mps 766 mmHg 91%

    25 November, Sunday

    Time Temperature Precipitation Wind Pressure Humidity
    00:00 +6°C° 0 mm 1 mps 766 mmHg 91%
    01:00 +6°C° 0 mm 1 mps 766 mmHg 91%
    02:00 +5°C° 0 mm 1 mps 765 mmHg 91%
    03:00 +5°C° 0 mm 1 mps 765 mmHg 91%
    04:00 +5°C° 0 mm 1 mps 765 mmHg 91%
    05:00 +5°C° 0 mm 1 mps 764 mmHg 91%
    06:00 +5°C° 0 mm 1 mps 764 mmHg 90%
    07:00 +5°C° 0 mm 1 mps 764 mmHg 89%
    08:00 +5°C° 0 mm 1 mps 764 mmHg 88%
    09:00 +6°C° 0 mm 2 mps 764 mmHg 81%
    10:00 +8°C° 0 mm 2 mps 764 mmHg 74%
    11:00 +9°C° 0 mm 2 mps 764 mmHg 67%
    12:00 +10°C° 0 mm 2 mps 763 mmHg 64%
    13:00 +12°C° 0 mm 2 mps 763 mmHg 60%
    14:00 +12°C° 0 mm 2 mps 762 mmHg 57%
    15:00 +10°C° 0 mm 2 mps 762 mmHg 62%
    16:00 +10°C° 0 mm 2 mps 762 mmHg 67%
    17:00 +9°C° 0 mm 2 mps 762 mmHg 72%
    18:00 +8°C° 0 mm 2 mps 761 mmHg 73%
    19:00 +8°C° 0 mm 2 mps 761 mmHg 75%
    20:00 +7°C° 0 mm 2 mps 761 mmHg 77%
    21:00 +7°C° 0 mm 2 mps 761 mmHg 80%
    22:00 +7°C° 0 mm 2 mps 761 mmHg 82%
    23:00 +7°C° 0 mm 2 mps 761 mmHg 84%

    26 November, Monday

    Time Temperature Precipitation Wind Pressure Humidity
    00:00 +7°C° 0 mm 3 mps 760 mmHg 86%
    01:00 +7°C° 0 mm 3 mps 760 mmHg 88%
    02:00 +7°C° 0 mm 3 mps 759 mmHg 90%
    03:00 +7°C° 0 mm 3 mps 759 mmHg 91%
    04:00 +7°C° 0 mm 3 mps 759 mmHg 92%
    05:00 +7°C° 0 mm 3 mps 758 mmHg 93%
    06:00 +7°C° 0 mm 3 mps 758 mmHg 93%
    07:00 +7°C° 0 mm 3 mps 758 mmHg 93%
    08:00 +7°C° 0 mm 4 mps 758 mmHg 93%
    09:00 +8°C° 0.1 mm 4 mps 758 mmHg 90%
    10:00 +10°C° 0.1 mm 4 mps 757 mmHg 86%
    11:00 +12°C° 0.1 mm 4 mps 757 mmHg 83%
    12:00 +12°C° 0.2 mm 4 mps 756 mmHg 84%
    13:00 +12°C° 0.2 mm 4 mps 756 mmHg 85%
    14:00 +12°C° 0.2 mm 4 mps 755 mmHg 86%
    15:00 +12°C° 0.5 mm 4 mps 755 mmHg 87%
    16:00 +12°C° 0.5 mm 5 mps 755 mmHg 88%
    17:00 +12°C° 0.5 mm 5 mps 755 mmHg 89%
    18:00 +12°C° 0.4 mm 5 mps 755 mmHg 91%
    19:00 +12°C° 0.4 mm 5 mps 755 mmHg 92%
    20:00 +11°C° 0.4 mm 6 mps 755 mmHg 93%
    21:00 +12°C° 0.7 mm 5 mps 755 mmHg 93%
    22:00 +12°C° 0.7 mm 5 mps 755 mmHg 93%
    23:00 +12°C° 0.7 mm 4 mps 755 mmHg 93%
    Show more